Location: Cartignies
(50.0929°N, 3.8447°E)
Time: 14:53:26
(UTC+00:00)

Cosmos 1703 - Pass Details

Date: 12 January 2026
Orbit: 413 x 424 km, 82.5° (Epoch: 16 February)

Event Time Altitude Azimuth Distance (km) Brightness Sun altitude
Rises 17:52:07 0° 180° (S) 2,407 6.8 -16.2°
Reaches altitude 10° 17:54:11 10° 176° (S) 1,543 5.7 -16.5°
Maximum altitude 17:57:29 58° 97° (E) 515 2.8 -17.1°
Enters shadow 17:58:22 41° 41° (NE) 647 3.3 -17.2°
